Showing default

WGS 10 (USA 291), 44071

Orbit data source: Space-Track

WGS 10 (USA 291), 44071 is a payload satellite owned by USAF SMC (US) in GEO that was launched on Sat, 16 Mar 2019 UTC via a DELTA 4M+(5,4) launch vehicle from the Air Force Eastern Test Range (AFETR). Payload-class satellites include a variety of spacecraft equipped with specific instruments for various scientific and technological missions. These include communications satellites like Starlink; space stations such as the ISS; scientific satellites like the Hubble; Earth observation satellites from companies like Planet Labs, Umbra, and HawkEye 360; GPS; miniature CubeSats for education and research; and military/defense satellites.

Not visible in the next 10 days
Identifier
44071, 2019-014A
Orbit
GEO
Country
Flag of USUS
Related business
Manufacturer
Boeing/ES
Mission
Operational Defense Communications
Bus & Motor
BSS-702HP, R-4D-15-375
Mass
6,000 kg wet, ~3,400 kg dry
Launch date (UTC)
2019-03-16 (7 years ago)
Launch vehicle
DELTA 4M+(5,4)
Launch site
Air Force Eastern Test Range (AFETR)
Object type
Payload
Rocket body
Debris
Shape & HBR
Box + 2 Pan, 20.4 m
Radar Cross Section
52.962 m², Large (>1 m²)

Expand to show TLE details & history
Last TLE update: 1 day ago

TLE from 1 day ago
0 WGS 10 (USA 291)
1 44071U 19014A   25259.16742606  .00000000  00000-0  00000-0 0  9996
2 44071   0.0242 157.6953 0000489 123.7707 194.4653  1.00269024 23876
Epoch: 2025-09-16T04:01Z
TLE epoch observation values (Epoch: 2025-09-16T04:01:05.611Z)
Latitude
-0.0293°
Longitude
60.29485°
Altitude
35,788.856 km
Speed
3.075 km/s
True Right ascension
07h 43m 43s
True Declination
0° 01' 45"
Sunlit
Object was in daylight at epoch
Visualization orbit readout
Latitude
Unknown
Longitude
Unknown
Altitude
Unknown
Speed
Unknown
Apparent Right ascension
Unknown
Apparent Declination
Unknown
Sunlit
N/A
Visualization observer readout
Local Sidereal Time
23:44:44
Azimuth
Unknown
Elevation
Unknown
Doppler factor
Unknown
Orbital elements
Apogee altitude
35,790.501 km
Perigee altitude
35,786.377 km
Semi-major axis
42,166.576 km
Eccentricity
0.00005
Inclination
0.0242°
RAAN
157.6953°
Arg. of periapsis
123.7707°
True anomaly
194.4639°
Mean anomaly
194.4653°
Eccentric anomaly
194.4646°
Mean motion
0.25066 °/min
Orbital period
1,436.19 mins
BSTAR
0
Loading maneuver chart data...
Computing Atmospheric mass density...
Loading historical data...
Loading historical data...
Loading historical data...
Loading historical data...
Loading historical data...
Loading historical data...
Loading historical data...
Other satellites on launch #14 in the year 2019 (2019-03-16 UTC)

Documentation

Showing up to 5 results
|